Location: Juzet
(42.9779°N, 0.7597°E)
Time: 16:38:44
(UTC+00:00)

Cosmos 1459 Rocket - Pass Details

Date: 14 July 2020
Orbit: 938 x 999 km, 83.0° (Epoch: 12 August)

Event Time Altitude Azimuth Distance (km) Brightness Sun altitude
Exits shadow 00:52:49 38° 138° (SE) 1,416 4.5 -24.4°
Maximum altitude 00:54:41 50° 91° (E) 1,192 4.5 -24.3°
Drops below altitude 10° 01:00:36 10° 18° (NNE) 2,699 7.4 -24.0°
Sets 01:03:11 0° 13° (NNE) 3,659 8.5 -23.9°
